Tracking 29892 objects as of 21-Nov-2024
HD Live streaming from Space Station
objects crossing your sky now

STARLINK-30820

Track STARLINK-30820 now!
10-day predictions
STARLINK-30820 is classified as:


NORAD ID: 58190
Int'l Code: 2023-167R
Perigee: 565.4 km
Apogee: 567.0 km
Inclination: 43.0 °
Period: 95.8 minutes
Semi major axis: 6937 km
RCS: Unknown
Launch date: October 30, 2023
Source: United States (US)
Launch site: AIR FORCE EASTERN TEST RANGE (AFETR)
Your satellite tracking list
Your tracking list is empty




NASA's NSSDC Master Catalog

Two Line Element Set (TLE):
1 58190U 23167R   24325.97701428  .00001232  00000-0  10627-3 0  9993
2 58190  43.0029 200.2030 0001141 274.2929  85.7782 15.02540705 59697
Source of the keplerian elements: AFSPC